Location: ??????????
(48.4699°N, 37.9573°E)
Time: 13:39:53
(UTC+00:00)

CZ-4C R/B - Pass Details

Date: 20 January 2021
Orbit: 617 x 1385 km, 63.4° (Epoch: 26 February)

Event Time Altitude Azimuth Distance (km) Brightness Sun altitude
Rises 17:13:22 0° 290° (WNW) 3,345 6.4 -30.3°
Reaches altitude 10° 17:16:15 10° 307° (NW) 2,538 5.3 -30.7°
Maximum altitude 17:20:47 22° 356° (N) 2,018 4.2 -31.5°
Enters shadow 17:21:20 22° 3° (N) 2,050 4.1 -31.6°
